Location: Newark
(48.4472°N, 1.4892°E)
Time: 15:23:17
(UTC+00:00)

deb Explorer IX - Pass Details

Date: 21 November 2019
Orbit: 546 x 1105 km, 38.8° (Epoch: 09 December)

Event Time Altitude Azimuth Distance (km) Brightness Sun altitude
Exits shadow 05:06:43 14° 213° (SSW) 1,950 ? -20.1°
Maximum altitude 05:06:56 14° 210° (SSW) 1,940 ? -20.1°
Drops below altitude 10° 05:09:27 10° 179° (S) 2,111 ? -19.7°
Sets 05:12:44 0° 154° (SSE) 2,913 ? -19.1°
